Showing default

GEESAT 3-02, 61012

Orbit data source: Space-Track

GEESAT 3-02, 61012 is a payload satellite owned by GeeSpace (CN) in LEO that was launched on Thu, 05 Sep 2024 UTC via a CHANG ZHENG 6 launch vehicle from the Taiyaun Space Center, China (TSC). Payload-class satellites include a variety of spacecraft equipped with specific instruments for various scientific and technological missions. These include communications satellites like Starlink; space stations such as the ISS; scientific satellites like the Hubble; Earth observation satellites from companies like Planet Labs, Umbra, and HawkEye 360; GPS; miniature CubeSats for education and research; and military/defense satellites.

Loading next visibility...
Identifier
61012, 2024-159B
Orbit
LEO
Country
Flag of CNCN / PRC
Related business
Manufacturer
GWCG
Mission
Operational Commercial Navigation
Bus & Motor
GPS100, Unknown motor
Mass
130 kg wet, 130 kg dry
Launch date (UTC)
2024-09-05 (2 years ago)
Launch vehicle
CHANG ZHENG 6
Launch site
Taiyaun Space Center, China (TSC)
Object type
Payload
Rocket body
Debris
Shape & HBR
Box + 2 Pan, 1.0 m
Radar Cross Section
0.833 m², Large (>1 m²)

Expand to show TLE details & history
Last TLE update: 10 hours ago

TLE from 10 hours ago
0 GEESAT 3-02
1 61012U 24159B   26171.43204016  .00001546  00000-0  20959-3 0  9992
2 61012  49.9952  68.2691 0018962  68.0978 292.1974 14.84216354 97273
Epoch: 2026-06-20T10:22Z
TLE epoch observation values (Epoch: 2026-06-20T10:22:08.269Z)
Latitude
-0.00006°
Longitude
4.08784°
Altitude
611.602 km
Speed
7.557 km/s
True Right ascension
04h 33m 04s
True Declination
0° 00' 00"
Sunlit
Object was in daylight at epoch
Visualization orbit readout
Latitude
Unknown
Longitude
Unknown
Altitude
Unknown
Speed
Unknown
Apparent Right ascension
Unknown
Apparent Declination
Unknown
Sunlit
N/A
Visualization observer readout
Local Sidereal Time
07:15:46
Azimuth
Unknown
Elevation
Unknown
Doppler factor
Unknown
Orbital elements
Apogee altitude
630.07 km
Perigee altitude
603.542 km
Semi-major axis
6,994.943 km
Eccentricity
0.0019
Inclination
49.9952°
RAAN
68.2691°
Arg. of periapsis
68.0978°
True anomaly
291.99604°
Mean anomaly
292.1974°
Eccentric anomaly
292.09674°
Mean motion
3.70994 °/min
Orbital period
97.04 mins
BSTAR
0.00020959
Loading maneuver chart data...
Computing Atmospheric mass density...
Loading historical data...
Loading historical data...
Loading historical data...
Loading historical data...
Loading historical data...
Loading historical data...
Loading historical data...

Documentation

Showing up to 5 results
|